Regional Weather Roundup
Issued by NWS Binghamton, NY

Home | Current Version | Previous Version | Text Only | Print | Product List | Glossary On
Versions: 1 2 3 4 5 6 7 8 9 10 11 12 13 14 15 16 17 18 19 20 21 22 23 24 25 26 27
000
ASUS41 KBGM 240710
RWRBGM
RWRBGM
BINGHAMTON REGIONAL WEATHER ROUNDUP
NATIONAL WEATHER SERVICE BINGHAMTON NY
300 AM EDT THU APR 24 2014

Note: "fair" indicates few or no clouds below 12,000 feet with no
significant weather and/or obstructions to visibility.

* = Station(s) that does not report precipitation, such as rain,
snow, etc, also no thunder or fog.

!NYZ009-015>018-022>025-036-037-044>046-055>057-062-240800
...CENTRAL NEW YORK...

CITY           SKY/WX    TMP DP  RH WIND       PRES   REMARKS
BINGHAMTON     CLEAR     33  21  61 NW7       29.91S WCI  27
CORTLAND       FAIR      34  25  69 NW5       29.96S WCI  30
DANSVILLE      CLEAR     29  22  75 S5        30.05S WCI  24
ELMIRA         CLEAR     35  16  45 W8        29.99R WCI  29
ITHACA         CLEAR     32  23  69 NW8       29.98S WCI  25
HAMILTON       SUNNY     37  21  52 N10G16    29.92  WCI  30
HORNELL        SUNNY     25  19  80 CALM      30.05F
MONTICELLO     CLEAR     34  25  69 NW12      29.84S WCI  25
NORWICH        CLEAR     36  18  48 N8G16     29.92S WCI  29
ONEONTA        CLEAR     32  21  64 NW7       29.86S WCI  26
PENN YAN       CLEAR     35  21  56 NW10      30.00S WCI  27
ROME           CLEAR     33  21  61 NW10      29.94R WCI  25
SIDNEY         CLEAR     34  27  75 W6        29.91F WCI  29
SYRACUSE       CLEAR     37  19  48 NW10      29.97S WCI  30
$$

!PAZ038>040-043-044-047-048-072-240800
...NORTHEAST PENNSYLVANIA...

CITY           SKY/WX    TMP DP  RH WIND       PRES   REMARKS
SCRANTON       CLEAR     37  22  54 NW15      29.92S WCI  28
TOWANDA*       SUNNY     34  19  55 SW6       29.99S WCI  29
$$
&&
KEY
WCI = WIND CHILL INDEX
VSB = VISIBILITY
HX  = HEAT INDEX
$$



USA.gov is the U.S. government's official web portal to all federal, state and local government web resources and services.